www.pogodaiklimat.ru

Погода и климат >> Архив погоды >> Россия >> город Санкт-Петербург >> Санкт-Петербург


АРХИВ ПОГОДЫ в Санкт-Петербурге

Время (UTC), дата Ветер
(напр.,м/с)
 
Видим.   Явления Облачность Т
(С)
Тd
(С)
f
(%)
Тe
(С)
Тes
(С)
Комфортность P
(гПа)
Po
(гПа)
Тmin
(С)
Tmax
(С)
R
(мм)
R24
(мм)
S
(см)
09 11.06 ЮЗ 3 10 км {дождь} 9/5 1000 м
[Sc diur, vesp Ac trans]
+20.0 +8.5 47 +21 +24 комфорт 1006.0 1005.3
12 11.06 ЮЗ 2 10 км {ливн. осадки, дождь} 9/0
[Ac trans Cs]
+20.5 +10.6 53 +23 +30 комфорт 1004.0 1003.3
15 11.06 Ю 2 10 км 9/0
[Ac trans Cs]
+25.5 +8.0 33 +26 +29 жарко 1001.1 1000.4 0.4
18 11.06 Ю 5-12
{12}
10 км 10/8 600 м
[Cu med, cong Ac trans Cs]
+22.3 +12.0 52 +25 +25 комфорт 999.6 998.9 +25.8 0.0
21 11.06 Ю 1
{12}
10 км {ливн. осадки} 6/3 1000 м
[Sc diur, vesp Ac trans Ci fib]
+17.8 +13.8 77 +19 +19 тепло 998.5 997.8
00 12.06 ЮЗ 2 10 км {ливн. осадки} 10/3 600 м
[Sc diur, vesp As op Cs]
+16.6 +12.8 78 +17 +17 тепло 997.3 996.6
03 12.06 З 1 10 км 9/4 600 м
[Sc diur, vesp Ac trans Ci fib]
+15.6 +13.5 87 +16 +17 тепло 996.3 995.6 +15.4 0.5
06 12.06 З 2 10 км 9/9 300 м
[Sc]
+15.1 +13.0 87 +15 +16 по сезону 996.3 995.6 +15.0 0.5
09 12.06 С 1 10 км 9/0
[Ac As]
+18.2 +12.8 71 +20 +26 тепло 996.5 995.8
12 12.06 ЮВ 1 10 км 9/6 1000 м
[Cu hum Ac As]
+17.9 +11.9 68 +19 +22 тепло 997.0 996.3
15 12.06 СЗ 1 10 км 8/8 1000 м
[Sc diur, vesp Ac As]
+18.3 +10.0 58 +20 +21 тепло 997.5 996.8
18 12.06 С 2 10 км 8/8 1000 м
[Cu hum]
+17.3 +2.2 36 +18 +18 тепло 999.1 998.4 +19.8
21 12.06 С 3 10 км 3/0
[Ac As]
+12.8 +3.3 52 +12 +12 по сезону 1001.7 1001.0
00 13.06 С 1 10 км ясно +9.4 +3.5 67 +9 +9 прохладно 1003.6 1002.8
03 13.06 С 1 10 км ясно +9.1 +4.1 71 +9 +10 прохладно 1005.2 1004.4 +7.5
06 13.06 СВ 2 10 км 3/1 600 м
[Cu hum Ci sp]
+13.3 +2.9 49 +13 +19 по сезону 1006.6 1005.8 +7.5
09 13.06 З 2 10 км 8/8 1500 м
[Cu med, cong]
+14.4 +3.5 48 +14 +17 прохладно 1007.7 1006.9
12 13.06 СВ 2 10 км 8/6 1000 м
[Cu Sc Ac As]
+15.0 +3.8 47 +15 +18 прохладно 1008.8 1008.1
15 13.06 СВ 1 10 км 8/6 1500 м
[Cu Sc Ac As]
+15.0 +3.2 45 +16 +17 по сезону 1010.0 1009.3
18 13.06 В 1 10 км 3/0
[Ci fib]
+14.5 +2.4 44 +15 +15 по сезону 1010.9 1010.1 +15.9
21 13.06 В 1 10 км 3/3 1000 м
[Sc]
+12.5 +3.1 53 +13 +13 по сезону 1012.2 1011.5
00 14.06 Ю 1 10 км 8/0
[Ac As]
+11.7 +1.7 50 +12 +12 по сезону 1013.3 1012.5
03 14.06 ЮВ 1 10 км 6/0
[Ac As]
+11.3 +1.4 51 +11 +12 прохладно 1014.2 1013.4 +9.8
06 14.06 Ю 1 10 км 3/0
[Ac trans]
+16.2 +0.4 34 +17 +24 тепло 1015.0 1014.2 +9.8
09 14.06 З 2 10 км ясно +20.4 +1.0 27 +21 +35 комфорт 1015.0 1014.3
12 14.06 ЮЗ 1 10 км 3/3 1000 м
[Cu hum]
+22.1 -0.9 22 +21 +31 комфорт 1014.5 1013.8
15 14.06 З 2 10 км 4/4 1000 м
[Cu med, cong]
+23.1 -0.4 21 +22 +25 комфорт 1013.9 1013.2
18 14.06 Ю 1 10 км 8/8 1000 м
[Cu med, cong]
+20.9 +2.8 30 +22 +22 комфорт 1013.9 1013.2 +23.3
21 14.06 Ю 2 10 км 3/3 1000 м
[Cu med, cong]
+18.2 +8.1 52 +19 +19 тепло 1014.9 1014.2
00 15.06 Ю 2 10 км ясно +16.0 +9.5 65 +16 +16 тепло 1015.2 1014.5
03 15.06 В 1 10 км 8/0
[Ci fib]
+14.8 +9.8 72 +15 +16 по сезону 1015.1 1014.4 +14.6
06 15.06 Ю 2 10 км 10/0
[As trans Cc]
+18.8 +11.2 61 +20 +24 тепло 1015.1 1014.4 +14.6
09 15.06 ЮЗ 3 10 км 8/3 600 м
[Cu hum Ac trans]
+23.8 +10.3 42 +25 +30 комфорт 1015.4 1014.7
12 15.06 ЮЗ 3 10 км 9/4 600 м
[Cu hum Cc]
+25.8 +8.2 33 +26 +31 жарко 1015.3 1014.6
15 15.06 ЮЗ 4 10 км {дождь} 6/4 600 м
[Sc diur, vesp Ac trans]
+25.2 +8.5 35 +26 +27 жарко 1015.2 1014.5 0.0
18 15.06 штиль 0 10 км {дождь} 8/0
[Ac trans]
+22.2 +10.6 48 +24 +24 комфорт 1015.5 1014.8 +25.9 0.0
21 15.06 ЮЗ 2 10 км 4/0
[Ac trans]
+20.7 +8.7 46 +23 +23 комфорт 1016.8 1016.1
00 16.06 ЮЗ 1 10 км 8/0
[Ac trans]
+17.5 +10.7 64 +19 +19 тепло 1018.0 1017.3
03 16.06 штиль 0 10 км 8/1 600 м
[Cu hum Ac trans]
+17.1 +11.9 71 +17 +18 тепло 1018.7 1018.0 +16.7
06 16.06 ЮЗ 1 10 км 8/0
[Ac trans]
+20.4 +10.8 54 +23 +28 комфорт 1019.1 1018.4 +16.7
09 16.06 ЮЗ 2 10 км 5/3 600 м
[Cu hum Ci fib]
+25.8 +7.3 31 +26 +35 жарко 1018.8 1018.1
12 16.06 Ю 2 10 км 6/3 600 м
[Cu hum Ci fib]
+26.5 +4.2 24 +25 +33 комфорт 1018.1 1017.4
15 16.06 ЮЗ 2 10 км 8/3 1000 м
[Cu hum Cs]
+26.3 +4.4 24 +25 +28 комфорт 1017.5 1016.7
18 16.06 Ю 3 10 км 9/0
[Cs]
+23.5 +5.2 31 +23 +24 комфорт 1017.9 1017.2 +26.8
21 16.06 Ю 2 10 км 9/0
[Ac As Cc]
+21.6 +6.8 38 +22 +22 комфорт 1018.4 1017.7
00 17.06 Ю 2 10 км 9/8 1000 м
[Sc Ac As]
+19.3 +8.5 50 +21 +21 комфорт 1018.7 1018.0
03 17.06 ЮЗ 1 10 км 10/0
[Ac und]
+19.0 +8.9 52 +21 +21 комфорт 1019.2 1018.5 +18.1
06 17.06 СЗ 2 10 км 6/0
[Ac As]
+22.4 +8.6 41 +24 +28 комфорт 1019.0 1018.3 +18.1
09 17.06 ЮВ 2 10 км 9/0
[Ac As]
+21.7 +8.0 41 +23 +28 комфорт 1019.0 1018.3
12 17.06 В 3 10 км 6/0
[Ac As]
+22.4 +7.9 39 +23 +29 комфорт 1018.1 1017.4
15 17.06 В 3 10 км 4/0
[Ac As]
+23.0 +11.2 47 +25 +28 комфорт 1016.9 1016.2
18 17.06 В 2 10 км 8/0
[Ac As]
+22.3 +12.4 53 +25 +25 комфорт 1016.5 1015.8 +24.2
21 17.06 Ю 1 10 км 4/0
[As trans]
+20.6 +11.1 54 +24 +24 комфорт 1016.4 1015.7
00 18.06 штиль 0 10 км 4/0
[As trans]
+18.7 +12.2 66 +19 +19 тепло 1015.9 1015.2
03 18.06 В 1 10 км 10/10 600 м
[Sc diur, vesp]
+18.4 +12.8 70 +20 +20 тепло 1015.3 1014.6 +18.4
06 18.06 ЮЗ 2 10 км 8/8 800 м
[Sc]
+19.9 +13.5 67 +22 +24 комфорт 1014.4 1013.7 +18.4

 

Местоположение метеостанции Санкт-Петербург (город Санкт-Петербург, Россия): широта 59.97 долгота 30.30 высота над уровнем моря 6 м.

В архиве по умолчанию представлена погода в Санкт-Петербурге за последнюю неделю. Архивные данные за месяц целиком и за предыдущие месяцы, начиная с января 2011 года, Вы можете получить, выбрав интересующий диапазон дат из раскрывающегося списка и нажав кнопку "Ввод!".


*Определитесь, кто Вы:
робот инопланетянин человек

Внимание! Время в таблицах - всемирное. Для получения местного времени необходимо прибавить поправку, которая в Санкт-Петербурге равна 3 ч.

Смотрите также архив погоды в соседних городах и на ближайших метеорологических станциях:

Погода в Лисьем Носу (город Санкт-Петербург, Россия) (19 км)
Погода в Воейково (город Санкт-Петербург, Россия) (22 км)
Погода в Ломоносове (город Санкт-Петербург, Россия) (29 км)
Погода в Кронштадте (город Санкт-Петербург, Россия) (30 км)
Погода в Шлиссельбурге (Ленинградская область, Россия) (39 км)
Погода в Рощино (Ленинградская область, Россия) (48 км)
Погода в Шепелево (Ленинградская область, Россия) (58 км)
Погода в Сосново (Ленинградская область, Россия) (65 км)
Погода в Сосновом Бору (Ленинградская область, Россия) (65 км)
Погода в Белогорке (Ленинградская область, Россия) (70 км)

Пояснения к столбцам:

Ветер - указаны скорость ветра в м/с - средняя за 10 мин, порывы в срок и между сроками (в фигурных скобках) и направление, откуда дует ветер: С - северный, СВ - северо-восточный, В - восточный, ЮВ - юго-восточный, Ю - южный, ЮЗ - юго-западный, З - западный, СЗ - северо-западный.
Видимость - горизонтальная дальность видимости в метрах или километрах. При видимости от 1 до 10 км при отсутствии осадков обычно наблюдается дымка, при ухудшении видимости до 1 км и менее - туман. В сухую погоду видимость может ухудшаться дымом, пылью или мглою.
Явления - указаны атмосферные явления, наблюдавшиеся в срок или в последний час перед сроком; фигурными скобками обозначены явления, наблюдавшиеся между сроками (за 1-3 часа до срока); квадратными скобками обозначены град или гололедные отложения с указанием их диаметра в мм.
Облачность - указаны через наклонную черту общая и нижняя облачность в баллах и высота нижней границы облаков в метрах; квадратными скобками обозначены формы облаков: Ci - перистые, Cs - перисто-слоистые, Cc - перисто-кучевые, Ac - высококучевые, As - высокослоистые, Sc - слоисто-кучевые, Ns - слоисто-дождевые, Cu - кучевые, Cb - кучево-дождевые. Подробнее классификацию облаков см. в Атласе облаков (PDF).
T - Температура воздуха - температура, измеренная на высоте 2 м над землей.
Td - Температура точки росы - температура, при понижении до которой содержащийся в воздухе водяной пар достигнет насыщения.
f - Относительная влажность воздуха - влажноcть воздуха, измеренная на высоте 2 м над землей.
Te - Эффективная температура - температура, которую ощущает одетый по сезону человек в тени. Характеристика душности погоды. При расчете учитывается влияние влажности воздуха и скорости ветра на теплоощущения человека.
Tes - Эффективная температура на солнце - температура, которую ощущает человек, с поправкой на солнечный нагрев. Характеристика знойности погоды. Зависит от высоты солнца над горизонтом, облачности и скорости ветра. Ночью, в пасмурную погоду, а также при ветре 12 м/с и более поправка равна нулю.
P - Атмосферное давление - приведенное к уровню моря атмосферное давление.
Po - Атмосферное давление - измеренное на уровне метеостанции атмосферное давление.
Tmin - Минимальная температура - минимум температуры воздуха на высоте 2 м над землей.
Tmax - Максимальная температура - максимум температуры воздуха на высоте 2 м над землей.
R - Количество осадков - Количество выпавших осадков за период времени, мм. При наведении курсора мыши на число - период времени, за который выпало указанное количество осадков.
R24 - Количество осадков - Количество выпавших осадков за 24 часа, мм.
S - Снежный покров - Высота снежного покрова, см. При наведении курсора мыши на число - состояние снежного покрова и степень покрытия местности в баллах.